Flag for Germany Weather past 2 weeks in Coesfeld, North Rhine-Westphalia, Germany

Now
63 °F

Mild.


Feels Like: 63 °F
Forecast: 60 / 76 °F
Wind: 2 mph from Southwest

Location: Rheine-Bentlage

Current Time: Jul 26, 2014 at 7:51:17 AM

Latest Report: Jul 26, 2014 at 7:20 AM


Visibility: 0 mi

Pressure: 29.92 "Hg

Humidity: 100%

Dew point: 63 °F

Location of CoesfeldLocation

Historic Weather in Coesfeld — Graph

°F

Coesfeld temperature yesterday

Maximum temperature yesterday: 68 °F (at 7:20 PM)
Minimum temperature yesterday: 61 °F (at 4:20 AM)
Average temperature yesterday: 64 °F

Past Weeks' High & Low Weather Summary

 TemperatureHumidityPressure
High91 °F (Jul 19, 2:20 PM)100% (Jul 11, 6:20 AM)30.18 "Hg (Jul 11, 6:20 AM)
Low55 °F (Jul 15, 1:20 AM)28% (Jul 19, 4:20 PM)29.68 "Hg (Jul 13, 5:20 PM)
Average70 °F79%29.96 "Hg
* Reported Jul 11 6:20 AM — Jul 26 6:20 AM, Coesfeld, Weather by CustomWeather, © 2014

Note: Actual official high and low records may vary slightly from our data, if they occured in-between our weather recording intervals... More about our weather records

Advertising

Coesfeld weather history for previous 24 hours

 ConditionsComfort  
Time TempWeatherWind HumidityBarometerVisibility
6:20 AM
Jul 26
63 °FMild.2 mph94%29.92 "Hg1 mi
5:20 AM63 °FMild.2 mph100%29.92 "Hg1 mi
4:20 AM63 °FMild.No wind100%29.92 "Hg1 mi
3:20 AM63 °FMild.1 mph100%29.92 "Hg1 mi
2:20 AM63 °FMild.1 mph100%29.92 "Hg2 mi
1:20 AM64 °FMild.No wind94%29.95 "Hg4 mi
12:20 AM64 °FMild.1 mph94%29.92 "Hg4 mi
11:20 PM
Jul 25
66 °FMild.3 mph94%29.95 "Hg3 mi
10:20 PM66 °FMild.3 mph94%29.95 "Hg4 mi
9:20 PM66 °FMild.2 mph94%29.95 "HgN/A
8:20 PM68 °FMild.1 mph83%29.92 "HgN/A
7:20 PM68 °FMild.2 mph83%29.95 "HgN/A
6:20 PM66 °FMild.2 mph88%29.95 "HgN/A
5:20 PM66 °FMild.2 mph88%29.95 "HgN/A
4:20 PM64 °FMild.3 mph94%29.98 "HgN/A
3:20 PM64 °FMild.5 mph94%29.98 "HgN/A
2:20 PM64 °FMild.6 mph88%29.98 "Hg5 mi
1:20 PM63 °FMild.6 mph94%29.98 "Hg5 mi
12:20 PM63 °FBroken clouds.5 mph94%30.01 "HgN/A
11:20 AM63 °FLight rain. Fog.5 mph94%30.01 "Hg3 mi
10:20 AM61 °FRain. Fog.5 mph100%30.01 "Hg2 mi
9:51 AM61 °FLight rain. Fog.3 mph100%30.01 "Hg3 mi
9:20 AM61 °FDrizzle. Fog.3 mph94%30.01 "Hg3 mi
8:20 AM61 °FDrizzle. Fog.8 mph94%30.01 "Hg2 mi
8:02 AM63 °FDrizzle. Fog.9 mph88%30.01 "Hg3 mi
7:20 AM63 °FBroken clouds.3 mph83%30.01 "HgN/A
Weather by CustomWeather, © 2014

See weather overviewHow to use our weather pages